When you browse on this site, cookies collect data to enhance your experience and personalize the content and advertising you see.
Visit our Privacy Policy to learn more. By continuing to use the site, you agree to this use of cookies and data.
  • In Hungary
  • List of Countries
  • For 7 days
  • Water Temperature
  • Weather Map
  • News
  • Weather Widgets
  • user-avatar
    Login

    Hourly Weather Baramula

    Today, 18 August, Sunday

    Time Temperature Precipitation Wind Pressure Humidity
    00:00 +18°C° 0 mm 1 mps 617 mmHg 81%
    01:00 +18°C° 0 mm 1 mps 617 mmHg 80%
    02:00 +18°C° 0 mm 1 mps 617 mmHg 80%
    03:00 +16°C° 0 mm 1 mps 617 mmHg 80%
    04:00 +16°C° 0 mm 1 mps 617 mmHg 81%
    05:00 +15°C° 0 mm 1 mps 617 mmHg 81%
    06:00 +18°C° 0 mm 1 mps 618 mmHg 77%
    07:00 +20°C° 0 mm 1 mps 619 mmHg 73%
    08:00 +22°C° 0 mm 1 mps 620 mmHg 68%
    09:00 +24°C° 0 mm 1 mps 620 mmHg 64%
    10:00 +25°C° 0 mm 1 mps 620 mmHg 59%
    11:00 +27°C° 0 mm 1 mps 621 mmHg 54%
    12:00 +27°C° 0 mm 1 mps 621 mmHg 52%
    13:00 +28°C° 0 mm 2 mps 621 mmHg 50%
    14:00 +29°C° 0 mm 2 mps 621 mmHg 48%
    15:00 +28°C° 0.1 mm 2 mps 621 mmHg 52%
    16:00 +27°C° 0.1 mm 2 mps 620 mmHg 55%
    17:00 +27°C° 0.1 mm 2 mps 620 mmHg 59%
    18:00 +24°C° 0.2 mm 2 mps 619 mmHg 67%
    19:00 +21°C° 0.2 mm 2 mps 619 mmHg 75%
    20:00 +18°C° 0.2 mm 2 mps 618 mmHg 83%
    21:00 +18°C° 0.1 mm 2 mps 618 mmHg 81%
    22:00 +17°C° 0.1 mm 2 mps 618 mmHg 79%
    23:00 +17°C° 0.1 mm 2 mps 619 mmHg 77%

    Tomorrow, 19 August, Monday

    Time Temperature Precipitation Wind Pressure Humidity
    00:00 +16°C° 0.1 mm 1 mps 618 mmHg 76%
    01:00 +16°C° 0.1 mm 1 mps 618 mmHg 74%
    02:00 +16°C° 0.1 mm 1 mps 618 mmHg 72%
    03:00 +15°C° 0 mm 1 mps 618 mmHg 72%
    04:00 +15°C° 0 mm 1 mps 618 mmHg 72%
    05:00 +15°C° 0 mm 1 mps 618 mmHg 72%
    06:00 +18°C° 0 mm 1 mps 619 mmHg 69%
    07:00 +20°C° 0 mm 1 mps 620 mmHg 66%
    08:00 +22°C° 0 mm 1 mps 621 mmHg 63%
    09:00 +23°C° 0 mm 1 mps 622 mmHg 60%
    10:00 +25°C° 0 mm 1 mps 622 mmHg 56%
    11:00 +27°C° 0 mm 1 mps 623 mmHg 52%
    12:00 +27°C° 0.1 mm 1 mps 623 mmHg 50%
    13:00 +28°C° 0.1 mm 1 mps 623 mmHg 48%
    14:00 +29°C° 0.1 mm 2 mps 623 mmHg 46%
    15:00 +28°C° 0.2 mm 1 mps 622 mmHg 50%
    16:00 +27°C° 0.2 mm 1 mps 622 mmHg 53%
    17:00 +27°C° 0.2 mm 1 mps 621 mmHg 57%
    18:00 +24°C° 0.1 mm 1 mps 621 mmHg 61%
    19:00 +22°C° 0.1 mm 1 mps 620 mmHg 65%
    20:00 +18°C° 0.1 mm 2 mps 619 mmHg 69%
    21:00 +18°C° 0.1 mm 2 mps 619 mmHg 67%
    22:00 +18°C° 0.1 mm 1 mps 619 mmHg 64%
    23:00 +18°C° 0.1 mm 1 mps 619 mmHg 62%

    Day after tomorrow, 20 August, Tuesday

    Time Temperature Precipitation Wind Pressure Humidity
    00:00 +16°C° 0 mm 1 mps 619 mmHg 62%
    01:00 +16°C° 0 mm 1 mps 619 mmHg 62%
    02:00 +16°C° 0 mm 1 mps 619 mmHg 61%
    03:00 +15°C° 0 mm 1 mps 618 mmHg 62%
    04:00 +15°C° 0 mm 1 mps 618 mmHg 63%
    05:00 +15°C° 0 mm 1 mps 618 mmHg 64%
    06:00 +18°C° 0 mm 1 mps 619 mmHg 62%
    07:00 +20°C° 0 mm 1 mps 620 mmHg 60%
    08:00 +22°C° 0 mm 1 mps 621 mmHg 57%
    09:00 +23°C° 0 mm 1 mps 621 mmHg 54%
    10:00 +25°C° 0 mm 1 mps 622 mmHg 51%
    11:00 +27°C° 0 mm 1 mps 622 mmHg 48%
    12:00 +27°C° 0 mm 1 mps 622 mmHg 46%
    13:00 +28°C° 0 mm 1 mps 622 mmHg 44%
    14:00 +29°C° 0 mm 2 mps 622 mmHg 42%
    15:00 +28°C° 0 mm 1 mps 621 mmHg 46%
    16:00 +28°C° 0 mm 1 mps 621 mmHg 49%
    17:00 +27°C° 0 mm 1 mps 620 mmHg 53%
    18:00 +25°C° 0 mm 1 mps 620 mmHg 59%
    19:00 +22°C° 0 mm 1 mps 619 mmHg 65%
    20:00 +20°C° 0 mm 1 mps 618 mmHg 71%
    21:00 +19°C° 0 mm 1 mps 618 mmHg 70%
    22:00 +19°C° 0 mm 1 mps 618 mmHg 69%
    23:00 +19°C° 0 mm 1 mps 618 mmHg 67%

    21 August, Wednesday

    Time Temperature Precipitation Wind Pressure Humidity
    00:00 +18°C° 0 mm 1 mps 618 mmHg 68%
    01:00 +18°C° 0 mm 1 mps 617 mmHg 68%
    02:00 +16°C° 0 mm 1 mps 617 mmHg 68%
    03:00 +16°C° 0 mm 1 mps 617 mmHg 68%
    04:00 +16°C° 0 mm 1 mps 617 mmHg 68%
    05:00 +15°C° 0 mm 1 mps 617 mmHg 69%
    06:00 +18°C° 0 mm 1 mps 617 mmHg 66%
    07:00 +20°C° 0 mm 1 mps 618 mmHg 63%
    08:00 +22°C° 0 mm 1 mps 619 mmHg 60%
    09:00 +24°C° 0 mm 1 mps 619 mmHg 57%
    10:00 +26°C° 0 mm 1 mps 620 mmHg 53%
    11:00 +27°C° 0 mm 1 mps 621 mmHg 50%
    12:00 +28°C° 0.1 mm 1 mps 620 mmHg 49%
    13:00 +28°C° 0.1 mm 1 mps 620 mmHg 49%
    14:00 +29°C° 0.1 mm 1 mps 620 mmHg 48%
    15:00 +28°C° 0.1 mm 1 mps 620 mmHg 51%
    16:00 +28°C° 0.1 mm 1 mps 620 mmHg 54%
    17:00 +27°C° 0.1 mm 1 mps 619 mmHg 57%
    18:00 +24°C° 0.2 mm 1 mps 619 mmHg 63%
    19:00 +22°C° 0.2 mm 1 mps 618 mmHg 69%
    20:00 +20°C° 0.2 mm 1 mps 618 mmHg 74%
    21:00 +19°C° 0.1 mm 1 mps 618 mmHg 73%
    22:00 +19°C° 0.1 mm 1 mps 618 mmHg 71%
    23:00 +18°C° 0.1 mm 1 mps 617 mmHg 69%

    22 August, Thursday

    Time Temperature Precipitation Wind Pressure Humidity
    00:00 +18°C° 0.1 mm 1 mps 617 mmHg 69%
    01:00 +18°C° 0.1 mm 1 mps 617 mmHg 69%
    02:00 +16°C° 0.1 mm 1 mps 617 mmHg 69%
    03:00 +16°C° 0.1 mm 1 mps 617 mmHg 69%
    04:00 +16°C° 0.1 mm 1 mps 617 mmHg 68%
    05:00 +15°C° 0.1 mm 1 mps 617 mmHg 68%
    06:00 +18°C° 0 mm 1 mps 618 mmHg 66%
    07:00 +20°C° 0 mm 1 mps 618 mmHg 63%
    08:00 +22°C° 0 mm 1 mps 619 mmHg 60%
    09:00 +24°C° 0 mm 1 mps 620 mmHg 57%
    10:00 +26°C° 0 mm 1 mps 620 mmHg 54%
    11:00 +27°C° 0 mm 1 mps 621 mmHg 51%
    12:00 +28°C° 0 mm 1 mps 621 mmHg 49%
    13:00 +29°C° 0 mm 2 mps 621 mmHg 48%
    14:00 +29°C° 0 mm 2 mps 620 mmHg 47%
    15:00 +29°C° 0 mm 1 mps 620 mmHg 50%
    16:00 +28°C° 0 mm 1 mps 620 mmHg 53%
    17:00 +28°C° 0 mm 1 mps 619 mmHg 56%
    18:00 +25°C° 0 mm 1 mps 618 mmHg 63%
    19:00 +23°C° 0 mm 1 mps 618 mmHg 70%
    20:00 +21°C° 0 mm 1 mps 617 mmHg 76%
    21:00 +20°C° 0 mm 1 mps 617 mmHg 75%
    22:00 +20°C° 0 mm 1 mps 617 mmHg 73%
    23:00 +19°C° 0 mm 1 mps 617 mmHg 72%

    23 August, Friday

    Time Temperature Precipitation Wind Pressure Humidity
    00:00 +19°C° 0 mm 1 mps 617 mmHg 72%
    01:00 +19°C° 0 mm 1 mps 617 mmHg 73%
    02:00 +18°C° 0 mm 1 mps 616 mmHg 73%
    03:00 +18°C° 0 mm 1 mps 616 mmHg 73%
    04:00 +18°C° 0 mm 1 mps 616 mmHg 72%
    05:00 +16°C° 0 mm 1 mps 616 mmHg 72%
    06:00 +19°C° 0 mm 1 mps 617 mmHg 69%
    07:00 +21°C° 0 mm 1 mps 618 mmHg 65%
    08:00 +23°C° 0 mm 1 mps 619 mmHg 62%
    09:00 +25°C° 0 mm 1 mps 620 mmHg 58%
    10:00 +26°C° 0 mm 1 mps 620 mmHg 54%
    11:00 +28°C° 0 mm 1 mps 620 mmHg 51%
    12:00 +29°C° 0 mm 2 mps 620 mmHg 48%
    13:00 +29°C° 0 mm 2 mps 620 mmHg 46%
    14:00 +30°C° 0 mm 2 mps 620 mmHg 44%
    15:00 +30°C° 0.1 mm 1 mps 620 mmHg 47%
    16:00 +29°C° 0.1 mm 1 mps 619 mmHg 50%
    17:00 +28°C° 0.1 mm 1 mps 619 mmHg 53%
    18:00 +26°C° 0 mm 1 mps 618 mmHg 60%
    19:00 +24°C° 0 mm 1 mps 618 mmHg 66%
    20:00 +21°C° 0 mm 1 mps 617 mmHg 72%
    21:00 +21°C° 0 mm 1 mps 617 mmHg 71%
    22:00 +20°C° 0 mm 1 mps 618 mmHg 69%
    23:00 +20°C° 0 mm 1 mps 618 mmHg 68%
    Show more